Regional Weather Roundup
Issued by NWS

Home | Current Version | Previous Version | Graphics & Text | Print | Product List | Glossary On
Versions: 1 2 3 4 5 6 7 8 9 10 11 12 13 14 15 16 17 18 19 20 21 22 23 24 25 26 27
000
ASUS45 KTFX 200410
RWRMT
MONTANA REGIONAL WEATHER ROUNDUP
NATIONAL WEATHER SERVICE GREAT FALLS MT
900 PM MST SUN NOV 19 2017

NOTE: "FAIR" INDICATES FEW OR NO CLOUDS BELOW 12000 FEET WITH NO
SIGNIFICANT WEATHER AND/OR OBSTRUCTIONS TO VISIBILITY.

MTZ001>007-043-200500-
WEST OF THE DIVIDE

CITY           SKY/WX    TMP DP  RH WIND       PRES   REMARKS
KALISPELL      FAIR      35  26  69 SW8       29.70F WCI  29
MISSOULA       FAIR      29  26  89 SE3       29.78F
BUTTE          FAIR      28  14  55 CALM      29.80F
MULLAN PASS    CLOUDY    28  18  66 VRB5      29.70F
ANACONDA         N/A     36  12  38 W5        29.76F
DEER LODGE       N/A     36  19  51 S9        29.77F WCI  29
EUREKA           N/A     43  21  42 MISG      29.65F
HAMILTON         N/A     43  14  31 SE10      29.77F
LIBBY            N/A     43  18  36 SE7       29.64F
PLAINS           N/A     33  24  70 CALM      29.75F
RONAN            N/A     36  23  59 CALM      29.78F
$$

MTZ008-052>055-200500-
SOUTHWEST MONTANA

CITY           SKY/WX    TMP DP  RH WIND       PRES   REMARKS
BOZEMAN        FAIR      33  18  53 E6        29.78F WCI  28
DILLON         FAIR      32  14  47 SW16      29.84S WCI  21
W YELLOWSTONE  FAIR      25  16  68 S6        30.01S WCI  18
ENNIS          CLOUDY    37  10  32 S26G38    29.89F WCI  26
TWIN BRIDGES     N/A     36  12  37 CALM      29.85F
$$

MTZ009-010-012-014-046-048-049-054-200500-
EAST SLOPES AND CENTRAL MONTANA

CITY           SKY/WX    TMP DP  RH WIND       PRES   REMARKS
CUT BANK       FAIR      42  10  27 SW36G51   29.46S
GREAT FALLS    FAIR      45   9  23 SW20      29.59F
MALMSTROM AFB  FAIR      42  13  31 S12       29.60S
HELENA         FAIR      30  22  72 CALM      29.70F
BOWMANS CRNR   FAIR      42  10  27 S25       29.57S
CHOTEAU          N/A     50   1  13 SW17G28   29.54F
FAIRFIELD      FAIR      45   8  22 SE21G30   29.54F
POWER          FAIR      39  10  30 S13       29.54F WCI  32
RAYNESFORD     FAIR      47  10  22 SW7G21    29.60F
ULM            MOCLDY    47   9  21 SW23G29   29.60F
$$

MTZ011-013-016-021-045-047-050-051-200500-
NORTH CENTRAL MONTANA

CITY           SKY/WX    TMP DP  RH WIND       PRES   REMARKS
HAVRE          FAIR      41  20  43 SW21      29.48F
LEWISTOWN      FAIR      48  12  23 SW31G38   29.62F
N BAR RANCH    FAIR      50   9  18 W18G29    29.61R
CHINOOK          N/A     52  12  20 SW17G23   29.48F
DENTON         MOCLDY    43  15  32 S20G25    29.56F
GEYSER         FAIR      44  11  26 SW12      29.59F
GRASS RANGE    MOCLDY    53  10  18 W24G37    29.52F
STANFORD       FAIR      39  13  33 SW6       29.61F
WINIFRED       CLOUDY    46  14  27 W15       29.57S
$$

MTZ017>020-022>027-061-062-200500-
NORTHEAST MONTANA

CITY           SKY/WX    TMP DP  RH WIND       PRES   REMARKS
GLASGOW        FAIR      37  20  50 S6        29.50F
GLENDIVE       FAIR      36  20  52 S6        29.60F WCI  31
JORDAN           N/A     42  19  39 W8        29.55F
SIDNEY         FAIR      31  23  72 SW9       29.57F WCI  23
WOLF POINT     FAIR      26  19  74 W3        29.53F
MALTA          PTCLDY    43  18  36 CALM      29.48F
PLENTYWOOD       N/A     28  21  74 CALM      29.52S
POPLAR           N/A     36  19  51 S3        29.53F
SCOBEY           N/A     36  17  46 S1        29.49F
$$

MTZ028>42-056>058-200500-
SOUTHCENTRAL AND SOUTHEAST MONTANA

CITY           SKY/WX    TMP DP  RH WIND       PRES   REMARKS
BAKER          FAIR      40  23  50 SW10      29.64F
BILLINGS       MOCLDY    44  16  32 SW20      29.67F
LIVINGSTON     FAIR      42  16  34 SW44G60   29.70F
MILES CITY     FAIR      33  23  66 S6        29.62F WCI  28
BIG TIMBER     CLEAR     41  14  33 W15G23    29.74F
EKALAKA          N/A     44  16  32 S2        29.67F
FORSYTH          N/A     48  14  25 SW10      29.62F
HARLOWTON      MOCLDY    41  15  34 W7        29.67F
LAUREL           N/A     43  16  33 SW17      29.70R
ROUNDUP          N/A     40  16  38 S14       29.58F
$$

REGIONAL REPORTS...DAKOTAS

CITY           SKY/WX    TMP DP  RH WIND       PRES   REMARKS
WILLISTON      FAIR      30  21  69 S6        29.56F WCI  24
MINOT          FAIR      39  23  52 S15       29.56F WCI  31
DICKINSON      FAIR      32  20  61 S12       29.60F WCI  23
BEACH          FAIR      37  19  48 SW14      29.63F WCI  29
CROSBY         FAIR      30  21  69 S17       29.51F WCI  18
TIOGA          FAIR      34  21  60 SW15      29.56S WCI  24
BISMARCK       FAIR      30  23  75 CALM      29.67F
GRAND FORKS    FAIR      17  15  92 CALM      29.70F
FARGO          FAIR      22  18  85 CALM      29.72F
BUFFALO SD       N/A     35  22  58 W6        29.61F WCI  30
RAPID CITY     FAIR      34  17  50 W5        29.71F
$$

REGIONAL REPORTS...WYOMING/IDAHO/WASHINGTON

CITY           SKY/WX    TMP DP  RH WIND       PRES   REMARKS
GILLETTE       FAIR      41  12  30 SW18      29.73F
SHERIDAN       FAIR      45  13  27 SW7       29.68F
BUFFALO WY     FAIR      42  10  27 VRB7      29.72F
CODY           FAIR      47   1  15 W17G32    29.80F
YELLOWSTONE LA   N/A     15  13  91 VRB5      30.02F
IDAHO FALLS    FAIR      31  26  82 CALM      30.05F
SALMON         FAIR      31  24  75 VRB3      29.91F
BOISE          FAIR      42  25  50 E6        29.97S
SPOKANE        CLOUDY    41  28  60 S14       29.69F
$$

REGIONAL REPORTS...ALBERTA

CITY           SKY/WX    TMP DP  RH WIND       PRES   REMARKS
EDMONTON       PTCLDY    21  16  79 N6        29.17S WCI  14
CALGARY        MOCLDY    41  19  42 W22G35    29.20R
LETHBRIDGE     MOCLDY    41  21  45 W23G31    29.37F
MEDICINE HAT   PTCLDY    37  27  65 SW15G21   29.40F WCI  28
$$

REGIONAL REPORTS...SASKATCHEWAN

CITY           SKY/WX    TMP DP  RH WIND       PRES   REMARKS
SWIFT CURRENT  CLOUDY    39  25  56 SW16G22   29.30F WCI  30
REGINA         CLOUDY    27  19  74 S7        29.39F WCI  19
SASKATOON      CLOUDY    18  16  93 E2        29.28F
$$




USA.gov is the U.S. government's official web portal to all federal, state and local government web resources and services.